Regional Weather Roundup
Issued by NWS Portland, ME

Current Version | Previous Version | Text Only | Print | Product List | Glossary Off
Versions: 1 2 3 4 5 6 7 8 9 10 11 12 13 14 15 16 17 18 19 20 21 22 23 24 25 26 27 28 29 30 31 32 33 34 35 36 37 38 39 40 41 42 43 44 45 46 47 48 49 50
000 ASUS41 KGYX 122010 RWRGYX WEATHER ROUNDUP FOR MAINE AND NEW HAMPSHIRE NATIONAL WEATHER SERVICE GRAY ME 300 PM EST TUE DEC 12 2017 MEZ002-005-006-010-012-015-018-020-021-024-026-027-029-122100- MAINE CITY SKY/WX TMP DP RH WIND PRES REMARKS PORTLAND FRZ RAIN 25 24 96 VRB7 29.56F FOG SANFORD MIX PCPN 24 22 91 N10 29.53F WCI 14 BAR HARBOR MIX PCPN 30 28 92 N7 29.66F WISCASSET FRZ RAIN 27 26 96 VRB5 29.60F FOG ROCKLAND LGT RAIN 34 33 96 NE6 29.61F FRYEBURG SNOW 21 19 92 N6 29.57F VSB 1/2 LEWISTONAUBURN LGT SNOW 20 17 88 N9 29.59F FOG AUGUSTA LGT SNOW 19 16 88 N10 29.61F FOG WCI 7 WATERVILLE LGT SNOW 19 16 88 NE9 29.58F FOG BANGOR LGT SNOW 20 16 84 NE8 29.68F VSB 1 GREENVILLE N/A 18 17 96 E14 29.57F WCI 4 MILLINOCKET LGT SNOW 14 11 87 NE5 29.75F VSB 3/4 HOULTON SNOW 18 16 92 VRB5 29.75F VSB 1/4 PRESQUE ISLE SNOW 16 13 88 NE12 29.78F VSB 1/2 WCI 3 FRENCHVILLE LGT SNOW 10 7 87 NE9 29.76F VSB 3/4 CARIBOU SNOW 16 11 80 NE7 29.77F VSB 1/2 $$ NHZ002-005-008-009-011-012-014-122100- NEW HAMPSHIRE CITY SKY/WX TMP DP RH WIND PRES REMARKS PORTSMOUTH FRZ RAIN 30 28 94 NE3 29.47F FOG ROCHESTER FRZ RAIN 25 25 100 N9 29.50F NASHUA FRZ RAIN 32 31 96 NW7 29.46F FOG MANCHESTER FRZ RAIN 31 29 92 NW6 29.44F FOG CONCORD FRZ RAIN 29 26 89 N5 29.46F FOG LACONIA SNOW 23 20 88 NE10 29.50F VSB 1/2 WCI 12 PLYMOUTH SNOW 25 23 93 CALM 29.51F VSB 1/2 BERLIN LGT SNOW 22 20 92 CALM 29.51F VSB 3/4 WHITEFIELD LGT SNOW 32 26 78 NE10 29.45F JAFFREY LGT SNOW 28 27 96 VRB6 29.42F FOG KEENE LGT SNOW 32 31 96 N5 29.43F VSB 3/4 LEBANON LGT SNOW 28 26 92 NE8 29.46F VSB 3/4 MT WASHINGTON SNOW 18 18 100 SE48G55 N/A VSB 0 WCI -6 $$ VTZ005-007-008-122100- VERMONT CITY SKY/WX TMP DP RH WIND PRES REMARKS ST JOHNSBURY N/A 28 27 96 MISG 29.45F MONTPELIER LGT SNOW 28 27 96 S6 29.47F VSB 3/4 BURLINGTON LGT SNOW 32 29 88 SE7 29.42F FOG $$ MAZ007-012-024-CTZ003-RIZ002-NYZ038-NYZ072-122100- SOUTHERN NEW ENGLAND AND NY CITY SKY/WX TMP DP RH WIND PRES REMARKS BOSTON CLOUDY 45 42 89 SE15 29.43F WORCESTER LGT RAIN 34 32 92 N8 29.40F VSB 1/2 NANTUCKET LGT RAIN 49 49 100 E15G23 29.43F PROVIDENCE CLOUDY 49 48 97 SE9 29.40F HARTFORD LGT RAIN 34 33 96 W14 29.41F FOG ALBANY LGT RAIN 35 33 92 S5 29.42F FOG NEW YORK CITY CLOUDY 45 35 68 NW9 29.43S $$ ANZ081-ANZ082-ANZ150-NHZ014-MEZ023>029-122100- COASTAL MARINE OBSERVATIONS STATION/POSITION TIME TEMP WIND PRES WAVE AIR SEA DIR/SP/G HT/PER (UTC) (F) (DEG/KT/KT) (MB) (FT/S) MOUNT DESERT ROC 2000 44 110/ 20/ 22 1003.6F MATINICUS ROCK 1900 43 130/ 26/ 29 1002.2F ISLE OF SHOALS 1900 45 130/ 28/ 31 998.6F JEFFREYS LEDGE 1936 48 N/A 7/ 6 GEORGES BANK BUO 1850 57 52 1003.6 5/ 8 $$ .............KEY.............. WCI - WIND CHILL TC - TEMPERATURE IN CELSIUS VSB - VISIBILITY IN MILES HX - HEAT INDEX FAIR- INDICATES FEW OR NO CLOUDS BELOW 12,000 FT, WITH NO SIGNIFICANT WEATHER AND/OR OBSTRUCTIONS TO VISIBILITY.

USA.gov is the U.S. government's official web portal to all federal, state and local government web resources and services.